GW2929 Weather Reports


time (UTC)temp
C
wind
direction
speed
KPH
gust
KPH
rain 1hr
cm
rain 24hr
cm
rain mn
cm
humidity
%
barometer
mb
20260506201958 30 207 1.6 1.6 0.00 0.00 0.00 84 1002.6
20260506201456 30 159 3.2 3.2 0.00 0.00 0.00 84 1003.1
20260506200952 30 189 3.2 3.2 0.00 0.00 0.00 85 1003.3
20260506200449 30 89 3.2 4.8 0.00 0.00 0.00 85 1003.0
20260506195945 30 191 1.6 1.6 0.00 0.00 0.00 85 1003.1
20260506195442 30 184 4.8 6.4 0.00 0.00 0.00 84 1003.2
20260506194939 29 209 1.6 3.2 0.00 0.00 0.00 85 1003.3
20260506194436 30 197 1.6 1.6 0.00 0.00 0.00 84 1003.2
20260506193933 30 189 1.6 1.6 0.00 0.00 0.00 84 1003.4
20260506193430 30 214 1.6 1.6 0.00 0.00 0.00 82 1003.5
20260506192926 30 192 1.6 3.2 0.00 0.00 0.00 82 1003.5
20260506192424 30 210 3.2 3.2 0.00 0.00 0.00 83 1003.7
20260506191920 30 186 4.8 6.4 0.00 0.00 0.00 83 1003.6
20260506191417 30 181 6.4 11.3 0.00 0.00 0.00 84 1003.4
20260506190914 30 184 4.8 4.8 0.00 0.00 0.00 85 1003.7
20260506190410 28 196 0.0 1.6 0.00 0.00 0.00 88 1003.7
20260506185907 28 175 6.4 11.3 0.00 0.00 0.00 88 1004.0
20260506185404 27 184 3.2 4.8 0.00 0.00 0.00 90 1004.1
20260506184901 27 248 1.6 3.2 0.00 0.00 0.00 91 1004.2
20260506184358 27 195 0.0 1.6 0.00 0.00 0.00 91 1003.8
20260506183855 28 129 1.6 3.2 0.00 0.00 0.00 90 1004.0
20260506183350 28 198 0.0 1.6 0.00 0.00 0.00 90 1004.0
20260506182848 28 192 1.6 1.6 0.00 0.00 0.00 89 1004.1
20260506182345 28 198 0.0 0.0 0.00 0.00 0.00 88 1004.1
20260506181842 28 182 0.0 1.6 0.00 0.00 0.00 88 1004.0
20260506181341 28 201 0.0 1.6 0.00 0.00 0.00 87 1004.0
20260506180837 29 196 0.0 1.6 0.00 0.00 0.00 86 1004.1
20260506180333 29 214 0.0 0.0 0.00 0.00 0.00 85 1004.1
20260506175829 30 184 1.6 1.6 0.00 0.00 0.00 84 1004.0
20260506175327 30 192 3.2 3.2 0.00 0.00 0.00 82 1003.9
20260506174824 30 188 1.6 1.6 0.00 0.00 0.00 82 1003.9
20260506174321 30 205 0.0 1.6 0.00 0.00 0.00 81 1003.9
20260506173819 30 207 0.0 0.0 0.00 0.00 0.00 84 1003.9
20260506173315 30 207 1.6 3.2 0.00 0.00 0.00 85 1004.1
20260506172812 30 218 1.6 1.6 0.00 0.00 0.00 85 1003.9
20260506172309 30 214 1.6 1.6 0.00 0.00 0.00 87 1004.2
20260506171806 29 178 1.6 3.2 0.00 0.00 0.00 89 1004.0
20260506171303 28 207 0.0 1.6 0.00 0.00 0.00 93 1004.0
20260506170801 27 170 0.0 0.0 0.00 0.00 0.00 95 1004.0
20260506170257 27 188 1.6 1.6 0.00 0.00 0.00 97 1004.0
20260506165756 27 192 0.0 1.6 0.00 0.00 0.00 97 1004.0
20260506165253 27 213 0.0 1.6 0.00 0.00 0.00 99 1004.2
20260506164750 26 191 0.0 0.0 0.00 0.00 0.00 99 1004.0
20260506164246 26 202 0.0 0.0 0.00 0.00 0.00 99 1004.0
20260506163743 26 145 0.0 1.6 0.00 0.00 0.00 99 1004.3
20260506163238 26 184 1.6 1.6 0.00 0.00 0.00 99 1004.0
20260506162734 26 204 0.0 0.0 0.00 0.00 0.00 99 1004.1
20260506162232 25 203 0.0 1.6 0.00 0.00 0.00 99 1004.2
20260506161729 26 198 0.0 0.0 0.00 0.00 0.00 99 1004.2
20260506161227 25 200 1.6 3.2 0.00 0.00 0.00 99 1004.3
20260506160724 26 217 3.2 4.8 0.00 0.00 0.00 99 1004.0
20260506160220 26 194 3.2 3.2 0.00 0.00 0.00 99 1004.1
20260506155719 26 200 0.0 0.0 0.00 0.00 0.00 99 1003.9
20260506155216 26 218 0.0 0.0 0.00 0.00 0.00 98 1003.6
20260506153323 26 200 1.6 3.2 0.00 0.00 0.00 96 1003.5
20260506152820 26 179 0.0 0.0 0.00 0.00 0.00 97 1003.5
20260506152318 26 180 1.6 1.6 0.00 0.00 0.00 97 1003.6
20260506151816 26 197 0.0 0.0 0.00 0.00 0.00 97 1003.5
20260506151312 26 221 3.2 3.2 0.00 0.00 0.00 97 1003.5
20260506150809 26 202 0.0 0.0 0.00 0.00 0.00 97 1003.6
20260506150307 26 175 3.2 3.2 0.00 0.00 0.00 97 1003.5
20260506145803 26 71 4.8 9.7 0.00 0.00 0.00 97 1003.5
20260506145300 26 115 3.2 6.4 0.00 0.00 0.00 97 1003.4
20260506144757 26 106 4.8 6.4 0.00 0.00 0.00 96 1003.4
20260506144254 26 194 0.0 0.0 0.00 0.00 0.00 96 1003.4
20260506143752 26 196 3.2 3.2 0.00 0.00 0.00 95 1003.2
20260506143249 26 203 1.6 1.6 0.00 0.00 0.00 95 1003.3
20260506142747 26 202 1.6 3.2 0.00 0.00 0.00 96 1003.4
20260506142245 26 196 0.0 0.0 0.00 0.00 0.00 96 1003.6
20260506141743 26 198 1.6 1.6 0.00 0.00 0.00 96 1003.4
20260506141241 26 132 1.6 4.8 0.00 0.00 0.00 95 1003.5
20260506140738 26 199 1.6 1.6 0.00 0.00 0.00 95 1003.5
20260506140235 26 176 1.6 1.6 0.00 0.00 0.00 95 1003.5
20260506135732 26 97 1.6 1.6 0.00 0.00 0.00 95 1003.4
20260506135228 26 193 3.2 3.2 0.00 0.00 0.00 95 1003.2
20260506134725 26 159 4.8 6.4 0.00 0.00 0.00 95 1003.1
20260506134221 26 192 1.6 1.6 0.00 0.00 0.00 96 1003.1
20260506133719 26 188 1.6 1.6 0.00 0.00 0.00 96 1003.1
20260506133215 26 194 4.8 4.8 0.00 0.00 0.00 96 1003.0
20260506132712 26 198 1.6 1.6 0.00 0.00 0.00 96 1003.2
20260506132209 26 189 0.0 1.6 0.00 0.00 0.00 96 1003.4
20260506131707 26 226 1.6 3.2 0.00 0.00 0.00 96 1003.3
20260506131203 26 175 3.2 3.2 0.00 0.00 0.00 96 1003.2
20260506130700 25 168 1.6 3.2 0.00 0.00 0.00 97 1003.2
20260506130157 25 47 4.8 4.8 0.00 0.00 0.00 97 1003.2
20260506125655 25 169 4.8 11.3 0.00 0.00 0.00 97 1003.2
20260506125153 25 207 0.0 0.0 0.00 0.00 0.00 97 1003.0
20260506124650 25 200 0.0 1.6 0.00 0.00 0.00 97 1002.9
20260506124148 25 208 1.6 1.6 0.00 0.00 0.00 97 1002.9
20260506123645 25 195 1.6 1.6 0.00 0.00 0.00 97 1003.0
20260506123144 25 215 0.0 0.0 0.00 0.00 0.00 97 1003.0
20260506122640 25 262 1.6 3.2 0.00 0.00 0.00 97 1003.0
20260506122138 25 320 0.0 1.6 0.00 0.00 0.00 97 1002.8
20260506121635 25 320 0.0 1.6 0.00 0.00 0.00 96 1002.9
20260506121131 25 320 1.6 1.6 0.00 0.00 0.00 97 1002.9
20260506120630 25 320 3.2 4.8 0.00 0.00 0.00 96 1002.8
20260506120127 25 320 0.0 0.0 0.00 0.00 0.00 96 1002.6
20260506115625 25 320 0.0 0.0 0.00 0.00 0.00 96 1002.7
20260506115123 25 320 0.0 0.0 0.00 0.00 0.00 96 1002.9
20260506114620 25 320 1.6 3.2 0.00 0.00 0.00 96 1002.9
20260506114118 25 320 1.6 1.6 0.00 0.00 0.00 97 1002.6
20260506113616 25 320 0.0 0.0 0.00 0.00 0.00 97 1002.3
20260506113113 25 320 1.6 1.6 0.00 0.00 0.00 97 1002.5
20260506112609 25 317 0.0 0.0 0.00 0.00 0.00 97 1002.5
20260506112107 25 306 0.0 0.0 0.00 0.00 0.00 97 1002.6
20260506111604 25 291 3.2 4.8 0.00 0.00 0.00 97 1002.3
20260506111102 25 264 0.0 0.0 0.00 0.00 0.00 97 1002.5
20260506110559 25 201 1.6 1.6 0.00 0.00 0.00 96 1002.5
20260506110056 25 64 1.6 3.2 0.00 0.00 0.00 96 1002.4
20260506105553 25 221 0.0 0.0 0.00 0.00 0.00 96 1002.6
20260506105050 25 219 0.0 0.0 0.00 0.00 0.00 96 1002.6
20260506104548 25 223 0.0 0.0 0.00 0.00 0.00 96 1002.3
20260506104045 25 205 3.2 3.2 0.00 0.00 0.00 96 1002.6
20260506103542 25 211 1.6 3.2 0.00 0.00 0.00 96 1002.5
20260506103039 25 221 0.0 0.0 0.00 0.00 0.00 96 1002.5
20260506102538 25 176 0.0 1.6 0.00 0.00 0.00 96 1002.6
20260506102035 25 210 0.0 0.0 0.00 0.00 0.00 96 1002.4
20260506101531 25 196 0.0 0.0 0.00 0.00 0.00 96 1002.6
20260506101028 25 204 1.6 3.2 0.00 0.00 0.00 96 1002.4
20260506100526 25 216 0.0 0.0 0.00 0.00 0.00 96 1002.4
20260506100024 25 206 0.0 0.0 0.00 0.00 0.00 96 1002.3
20260506095523 25 198 0.0 1.6 0.00 0.00 0.00 96 1002.2
20260506095019 25 198 0.0 0.0 0.00 0.00 0.00 96 1002.3
20260506094517 25 216 0.0 0.0 0.00 0.00 0.00 96 1002.2
20260506094014 25 203 3.2 4.8 0.00 0.00 0.00 96 1002.2
20260506093513 25 162 0.0 1.6 0.00 0.00 0.00 96 1002.2
20260506093010 25 211 0.0 0.0 0.00 0.00 0.00 96 1002.1
20260506092508 25 204 0.0 0.0 0.00 0.00 0.00 96 1002.3
20260506092004 25 210 0.0 0.0 0.00 0.00 0.00 96 1002.3
20260506091503 25 206 1.6 3.2 0.00 0.00 0.00 96 1001.9
20260506090959 25 206 0.0 0.0 0.00 0.00 0.00 96 1002.0
20260506090457 25 209 0.0 0.0 0.00 0.00 0.00 95 1001.8
20260506085953 25 188 1.6 1.6 0.00 0.00 0.00 95 1002.1
20260506085450 25 180 1.6 1.6 0.00 0.00 0.00 95 1001.8
20260506084946 25 210 0.0 0.0 0.00 0.00 0.00 95 1001.9
20260506084443 25 188 3.2 3.2 0.00 0.00 0.00 95 1002.1
20260506083939 25 195 1.6 3.2 0.00 0.00 0.00 95 1002.0
20260506083437 25 212 1.6 3.2 0.00 0.00 0.00 95 1002.1
20260506082934 25 201 3.2 4.8 0.00 0.00 0.00 95 1001.7
20260506082431 25 160 1.6 3.2 0.00 0.00 0.00 95 1001.8
20260506081926 25 196 3.2 4.8 0.00 0.00 0.00 95 1001.8
20260506081425 25 188 1.6 3.2 0.00 0.00 0.00 95 1002.0
20260506080922 25 199 1.6 1.6 0.00 0.00 0.00 95 1002.0
20260506080419 25 195 0.0 0.0 0.00 0.00 0.00 95 1001.9
20260506073403 25 144 6.4 9.7 0.00 0.00 0.00 93 1002.1
20260506072900 25 136 3.2 4.8 0.00 0.00 0.00 93 1002.1
20260506072357 25 147 6.4 6.4 0.00 0.00 0.00 93 1002.1
20260506071854 25 179 0.0 1.6 0.00 0.00 0.00 93 1002.1
20260506071353 25 135 3.2 4.8 0.00 0.00 0.00 93 1002.4
20260506070849 25 177 1.6 1.6 0.00 0.00 0.00 93 1002.6
20260506070346 25 116 3.2 4.8 0.00 0.00 0.00 93 1002.7
20260506062323 25 192 3.2 3.2 0.00 0.00 0.00 95 1003.1
20260506061819 25 196 1.6 1.6 0.00 0.00 0.00 95 1003.2
20260506061316 25 61 0.0 1.6 0.00 0.00 0.00 95 1003.1
20260506060814 25 261 0.0 0.0 0.00 0.00 0.00 95 1002.9
20260506060312 25 182 0.0 1.6 0.00 0.00 0.00 95 1002.9
20260506051244 25 200 1.6 3.2 0.00 0.00 0.00 95 1003.2
20260506050742 25 130 3.2 4.8 0.00 0.00 0.00 95 1003.1
20260506050239 25 160 6.4 9.7 0.00 0.00 0.00 95 1003.2
20260506044730 25 197 4.8 4.8 0.00 0.00 0.00 95 1003.3
20260506044227 25 146 1.6 3.2 0.00 0.00 0.00 95 1003.4
20260506043724 25 195 0.0 1.6 0.00 0.00 0.00 95 1003.4
20260506043222 25 156 3.2 4.8 0.00 0.00 0.00 95 1003.2
20260506042720 25 150 1.6 3.2 0.00 0.00 0.00 95 1003.0
20260506042218 25 177 4.8 4.8 0.00 0.00 0.00 95 1002.9
20260506041716 25 194 6.4 11.3 0.00 0.00 0.00 95 1003.2
20260506041213 25 181 1.6 1.6 0.00 0.00 0.00 95 1003.3
20260506040711 25 161 4.8 6.4 0.00 0.00 0.00 95 1003.2
20260506040207 26 199 0.0 1.6 0.00 0.00 0.00 95 1003.0
20260506035704 26 202 0.0 1.6 0.00 0.00 0.00 95 1003.1
20260506035200 26 184 3.2 3.2 0.00 0.00 0.00 95 1003.0
20260506034652 25 161 6.4 11.3 0.00 0.00 0.00 95 1002.9
20260506034149 25 188 1.6 3.2 0.00 0.00 0.00 95 1002.7
20260506033647 25 169 4.8 6.4 0.00 0.00 0.00 95 1002.8
20260506033143 25 184 3.2 4.8 0.00 0.00 0.00 95 1002.7
20260506032641 25 172 3.2 4.8 0.00 0.00 0.00 95 1002.5
20260506032137 25 168 6.4 9.7 0.00 0.00 0.00 95 1002.6
20260506031634 25 152 6.4 11.3 0.00 0.00 0.00 95 1002.3
20260506031131 25 201 8.0 17.7 0.00 0.00 0.00 95 1002.5
20260506030630 25 205 1.6 1.6 0.00 0.00 0.00 95 1002.4
20260506030127 25 131 4.8 4.8 0.00 0.00 0.00 95 1002.3
20260506025623 25 83 3.2 4.8 0.00 0.00 0.00 95 1002.3
20260506025119 25 166 9.7 14.5 0.00 0.00 0.00 95 1002.2
20260506024617 25 201 1.6 1.6 0.00 0.00 0.00 95 1002.2
20260506024113 25 165 3.2 4.8 0.00 0.00 0.00 95 1002.2
20260506023609 25 181 4.8 4.8 0.00 0.00 0.00 95 1002.4
20260506023107 25 91 4.8 9.7 0.00 0.00 0.00 95 1002.0
20260506022604 25 178 4.8 11.3 0.00 0.00 0.00 95 1002.0
20260506022101 25 191 3.2 4.8 0.00 0.00 0.00 95 1001.9
20260506021558 25 182 3.2 3.2 0.00 0.00 0.00 95 1002.1
20260506021050 25 195 1.6 1.6 0.00 0.00 0.00 94 1002.0
20260506020547 25 189 6.4 6.4 0.00 0.00 0.00 94 1001.7
20260506020045 25 184 3.2 4.8 0.00 0.00 0.00 94 1001.7
20260506015542 25 190 3.2 3.2 0.00 0.00 0.00 94 1001.6
20260506015039 25 150 3.2 3.2 0.00 0.00 0.00 94 1001.5
20260506014536 25 153 11.3 17.7 0.00 0.00 0.00 94 1001.7
20260506014032 25 215 6.4 9.7 0.00 0.00 0.00 94 1001.6
20260506013531 25 172 3.2 4.8 0.00 0.00 0.00 94 1001.5
20260506013027 25 136 3.2 6.4 0.00 0.00 0.00 94 1001.4
20260506012523 26 196 3.2 3.2 0.00 0.00 0.00 94 1001.2
20260506012020 26 198 3.2 6.4 0.00 0.00 0.00 93 1001.3
20260506011517 26 197 3.2 3.2 0.00 0.00 0.00 93 1001.3
20260506011013 26 197 1.6 3.2 0.00 0.00 0.00 93 1001.2
20260506010508 26 121 1.6 3.2 0.00 0.00 0.00 93 1001.2
20260506010003 26 172 1.6 3.2 0.00 0.00 0.00 93 1001.1
20260506005501 26 184 3.2 4.8 0.00 0.00 0.00 92 1001.1
20260506004956 26 178 3.2 3.2 0.00 0.00 0.00 93 1001.1
20260506004454 26 104 6.4 12.9 0.00 0.00 0.00 92 1001.3
20260506003950 26 151 8.0 11.3 0.00 0.00 0.00 92 1000.9
20260506003447 26 172 4.8 11.3 0.00 0.00 0.00 92 1001.1
20260506002943 26 179 3.2 9.7 0.00 0.00 0.00 92 1001.0
20260506002439 26 121 6.4 12.9 0.00 0.00 0.00 91 1000.9
20260506001934 26 160 6.4 9.7 0.00 0.00 0.00 91 1001.0
20260506001432 26 186 8.0 14.5 0.00 0.00 0.00 91 1000.9
20260506000929 26 174 0.0 1.6 0.00 0.00 0.00 90 1001.0
20260506000426 27 131 4.8 9.7 0.00 0.00 0.00 90 1000.9
20260505235923 27 210 6.4 9.7 0.00 0.00 0.00 90 1000.8
20260505235421 26 199 1.6 3.2 0.00 0.00 0.00 90 1000.8
20260505234918 27 207 9.7 17.7 0.00 0.00 0.00 89 1000.7
20260505234416 27 184 1.6 3.2 0.00 0.00 0.00 88 1000.8
20260505233912 27 181 9.7 14.5 0.00 0.00 0.00 88 1000.6
20260505233410 27 188 4.8 12.9 0.00 0.00 0.00 88 1000.7
20260505232907 27 141 6.4 9.7 0.00 0.00 0.00 88 1000.5
20260505232405 27 240 3.2 4.8 0.00 0.00 0.00 87 1000.4
20260505231901 27 89 11.3 14.5 0.00 0.00 0.00 87 1000.5
20260505231359 28 117 4.8 6.4 0.00 0.00 0.00 86 1000.5
20260505230857 27 194 4.8 9.7 0.00 0.00 0.00 86 1000.6
20260505230354 28 197 6.4 9.7 0.00 0.00 0.00 85 1000.4
20260505225850 28 179 6.4 12.9 0.00 0.00 0.00 86 1000.7
20260505225348 27 86 8.0 12.9 0.00 0.00 0.00 86 1000.5
20260505224843 28 195 6.4 9.7 0.00 0.00 0.00 85 1000.7
20260505224341 28 184 3.2 3.2 0.00 0.00 0.00 85 1000.6
20260505223838 28 86 9.7 16.1 0.00 0.00 0.00 84 1000.3
20260505223335 27 203 9.7 14.5 0.00 0.00 0.00 85 1000.6
20260505222830 28 170 3.2 4.8 0.00 0.00 0.00 84 1000.6
20260505222327 28 202 6.4 12.9 0.00 0.00 0.00 84 1000.7
20260505221824 28 181 6.4 6.4 0.00 0.00 0.00 83 1000.5
20260505221321 29 168 9.7 14.5 0.00 0.00 0.00 82 1000.6
20260505220818 28 38 6.4 9.7 0.00 0.00 0.00 82 1000.9
20260505220315 29 195 6.4 11.3 0.00 0.00 0.00 81 1000.7
20260505215813 29 165 8.0 12.9 0.00 0.00 0.00 81 1000.8
20260505215310 29 146 6.4 11.3 0.00 0.00 0.00 81 1001.0
20260505214808 29 192 8.0 11.3 0.00 0.00 0.00 81 1000.8
20260505214305 29 200 6.4 9.7 0.00 0.00 0.00 81 1000.7
20260505213802 30 134 3.2 4.8 0.00 0.00 0.00 80 1001.0
20260505213300 29 145 9.7 12.9 0.00 0.00 0.00 80 1001.0
20260505212755 28 139 6.4 9.7 0.00 0.00 0.00 81 1001.2
20260505212253 29 175 6.4 12.9 0.00 0.00 0.00 81 1001.3
20260505211749 29 179 4.8 9.7 0.00 0.00 0.00 81 1001.3
20260505211247 29 97 6.4 9.7 0.00 0.00 0.00 81 1001.3
20260505210743 29 170 6.4 9.7 0.00 0.00 0.00 81 1001.2
20260505210240 30 153 8.0 11.3 0.00 0.00 0.00 79 1001.5
20260505205737 29 192 6.4 11.3 0.00 0.00 0.00 80 1001.4
20260505205236 30 197 11.3 17.7 0.00 0.00 0.00 78 1001.6
20260505204732 31 157 4.8 4.8 0.00 0.00 0.00 75 1001.6
20260505204230 30 176 4.8 9.7 0.00 0.00 0.00 78 1001.7
20260505203727 30 191 3.2 3.2 0.00 0.00 0.00 80 1001.7
20260505203224 30 189 3.2 4.8 0.00 0.00 0.00 79 1002.0
20260505202719 29 150 3.2 6.4 0.00 0.00 0.00 81 1002.1